This demonstration page uses our WeatherBlox Daily Observations layout. Learn more.

Left ArrowRight Arrow

39.29038, -76.61219

Hourly Observations for February 22, 2017

Temp ( °F °C ) Dew Point ( °F °C ) Humidity (%) Winds ( mph kmh ) Pressure ( in mb ) Visibility ( mi km ) Precip ( " mm )
12:54 am 00:54 undefined 47 8.3 37 2.8 69 69 undefined N/A 30.10 1019 N/A N/A
1:54 am 01:54 undefined 46 7.8 37 2.8 71 71 undefined N/A 30.08 1019 N/A N/A
2:54 am 02:54 undefined 46 7.8 37 2.8 71 71 undefined N/A 30.05 1018 N/A N/A
3:54 am 03:54 undefined 46 7.8 37 2.8 71 71 undefined N/A 30.04 1017 N/A N/A
4:54 am 04:54 undefined 46 7.8 37 2.8 71 71 undefined N/A 30.04 1017 N/A N/A
5:54 am 05:54 undefined 46 7.8 37 2.8 71 71 undefined N/A 30.04 1017 N/A N/A
6:54 am 06:54 undefined 46 7.8 37 2.8 71 71 undefined N/A 30.04 1017 N/A N/A
7:54 am 07:54 undefined 46 7.8 38 3.3 73 73 undefined N/A 30.05 1018 N/A N/A
8:54 am 08:54 undefined 47 8.3 39 3.9 74 74 undefined N/A 30.05 1018 N/A N/A
9:54 am 09:54 undefined 48 8.9 39 3.9 71 71 undefined N/A 30.03 1017 N/A N/A
10:54 am 10:54 undefined 51 10.6 40 4.4 66 66 undefined N/A 30.01 1016 N/A N/A
11:54 am 11:54 undefined 55 12.8 40 4.4 57 57 undefined N/A 29.98 1015 N/A N/A
12:54 pm 12:54 undefined 56 13.3 41 5 57 57 undefined N/A 29.96 1015 N/A N/A
1:54 pm 13:54 undefined 55 12.8 41 5 59 59 undefined N/A 29.93 1014 N/A N/A
2:54 pm 14:54 undefined 56 13.3 42 5.6 60 60 undefined N/A 29.92 1013 N/A N/A
3:54 pm 15:54 undefined 58 14.4 43 6.1 58 58 undefined N/A 29.92 1013 N/A N/A
4:54 pm 16:54 undefined 57 13.9 43 6.1 60 60 undefined N/A 29.92 1013 N/A N/A
5:54 pm 17:54 undefined 55 12.8 44 6.7 67 67 undefined N/A 29.91 1013 N/A N/A
6:54 pm 18:54 undefined 54 12.2 44 6.7 69 69 undefined N/A 29.92 1013 N/A N/A
7:54 pm 19:54 undefined 53 11.7 44 6.7 72 72 undefined N/A 29.91 1013 N/A N/A
8:54 pm 20:54 undefined 52 11.1 44 6.7 75 75 undefined N/A 29.92 1013 N/A N/A
9:54 pm 21:54 undefined 52 11.1 44 6.7 75 75 undefined N/A 29.91 1013 N/A N/A
10:54 pm 22:54 undefined 51 10.6 44 6.7 77 77 undefined N/A 29.91 1013 N/A N/A
11:54 pm 23:54 undefined 51 10.6 44 6.7 77 77 undefined N/A 29.90 1013 N/A N/A

Powered by AerisWeather